FW1341 Weather Reports


Display with metric or nautical units.
time (UTC)temp
F
wind
direction
speed
MPH
gust
MPH
rain 1hr
in
rain 24hr
in
rain mn
in
humidity
%
barometer
mb
20260902073806 80 117 1.0 4.0 0.00 0.00 0.00 82 1013.7
20260902073305 80 95 2.0 5.0 0.00 0.00 0.00 81 1013.7
20260902072807 80 102 2.0 5.0 0.00 0.00 0.00 81 1013.7
20260902072309 80 92 1.0 3.0 0.00 0.00 0.00 81 1013.8
20260902071804 80 98 1.0 3.0 0.00 0.00 0.00 81 1013.8
20260902071301 80 120 1.0 3.0 0.00 0.00 0.00 81 1013.7
20260902070800 80 99 1.0 3.0 0.00 0.00 0.00 80 1013.6
20260902070257 81 56 1.0 4.0 0.00 0.00 0.00 80 1013.5
20260902065756 81 84 1.0 4.0 0.00 0.00 0.00 80 1013.4
20260902065258 81 99 2.0 5.0 0.00 0.00 0.00 79 1013.4
20260902064757 81 92 3.0 5.0 0.00 0.00 0.00 79 1013.4
20260902063754 81 96 1.0 5.0 0.00 0.00 0.00 77 1013.4
20260902063253 82 94 1.0 5.0 0.00 0.00 0.00 77 1013.4
20260902062755 82 95 2.0 5.0 0.00 0.00 0.00 76 1013.4
20260902062253 82 80 3.0 10.0 0.00 0.00 0.00 76 1013.4
20260902061755 82 93 4.0 10.0 0.00 0.00 0.00 75 1013.3
20260902060751 83 92 5.0 13.0 0.00 0.00 0.00 73 1013.2
20260902060251 83 18 3.0 13.0 0.00 0.00 0.00 71 1013.2
20260902055248 84 58 0.0 2.0 0.00 0.00 0.00 70 1013.1
20260902053747 84 31 0.0 3.0 0.00 0.00 0.00 69 1013.0
20260902053243 84 20 1.0 3.0 0.00 0.00 0.00 68 1012.9
20260902052243 84 114 1.0 3.0 0.00 0.00 0.00 68 1013.1
20260902051743 84 60 1.0 3.0 0.00 0.00 0.00 67 1013.1
20260902051242 85 90 1.0 3.0 0.00 0.00 0.00 67 1013.2
20260902050739 85 15 2.0 5.0 0.00 0.00 0.00 67 1013.2
20260902050239 85 57 2.0 8.0 0.00 0.00 0.00 67 1013.3
20260902045738 85 65 3.0 8.0 0.00 0.00 0.00 66 1013.5
20260902045235 85 68 1.0 7.0 0.00 0.00 0.00 66 1013.4
20260902044737 85 40 1.0 7.0 0.00 0.00 0.00 65 1013.3
20260902044237 85 335 1.0 4.0 0.00 0.00 0.00 65 1013.0
20260902043226 86 17 2.0 4.0 0.00 0.00 0.00 64 1012.8
20260902042722 86 218 1.0 4.0 0.00 0.00 0.00 64 1012.7
20260902041714 86 335 2.0 6.0 0.00 0.00 0.00 64 1012.6
20260902041209 86 323 1.0 6.0 0.00 0.00 0.00 63 1012.4
20260902040704 86 308 0.0 3.0 0.00 0.00 0.00 64 1012.4
20260902040201 86 309 0.0 3.0 0.00 0.00 0.00 64 1012.5
20260902035654 86 318 0.0 2.0 0.00 0.00 0.00 64 1012.4
20260902035150 86 315 0.0 2.0 0.00 0.00 0.00 64 1012.4
20260902034653 87 335 0.0 1.0 0.00 0.00 0.00 64 1012.3
20260902034151 87 335 1.0 4.0 0.00 0.00 0.00 64 1012.2
20260902033651 87 255 1.0 4.0 0.00 0.00 0.00 64 1012.2
20260902033151 87 341 1.0 5.0 0.00 0.00 0.00 64 1012.2
20260902032149 87 313 2.0 7.0 0.00 0.00 0.00 64 1012.0
20260902031635 87 340 2.0 7.0 0.00 0.00 0.00 63 1011.9
20260902031135 87 319 2.0 8.0 0.00 0.00 0.00 63 1011.9
20260902030636 87 308 2.0 8.0 0.00 0.00 0.00 63 1011.8
20260902030134 87 287 2.0 6.0 0.00 0.00 0.00 63 1011.7
20260902024631 88 333 2.0 8.0 0.00 0.00 0.00 62 1011.6
20260902024131 88 316 2.0 6.0 0.00 0.00 0.00 62 1011.6
20260902023632 88 306 2.0 7.0 0.00 0.00 0.00 62 1011.7
20260902023130 88 266 2.0 9.0 0.00 0.00 0.00 62 1011.8
20260902022631 88 234 2.0 9.0 0.00 0.00 0.00 62 1012.0
20260902022131 89 57 2.0 7.0 0.00 0.00 0.00 62 1012.1
20260902021631 89 339 1.0 6.0 0.00 0.00 0.00 62 1012.1
20260902021130 89 328 1.0 6.0 0.00 0.00 0.00 62 1012.1
20260902020632 89 313 2.0 7.0 0.00 0.00 0.00 62 1012.0
20260902020133 89 342 1.0 7.0 0.00 0.00 0.00 62 1011.9
20260902015633 89 296 1.0 7.0 0.00 0.00 0.00 62 1011.7
20260902015127 89 4 1.0 7.0 0.00 0.00 0.00 62 1011.7
20260902014626 90 224 1.0 6.0 0.00 0.00 0.00 61 1011.6
20260902014128 90 307 1.0 7.0 0.00 0.00 0.00 62 1011.5
20260902013627 90 318 2.0 7.0 0.00 0.00 0.00 62 1011.5
20260902012628 90 332 0.0 2.0 0.00 0.00 0.00 64 1011.6
20260902011623 90 354 0.0 2.0 0.00 0.00 0.00 64 1011.5
20260902011126 90 288 0.0 3.0 0.00 0.00 0.00 64 1011.4
20260902010623 90 274 1.0 3.0 0.00 0.00 0.00 64 1011.3
20260902010123 90 295 1.0 6.0 0.00 0.00 0.00 63 1011.3
20260902005625 90 252 1.0 6.0 0.00 0.00 0.00 63 1011.2
20260902005118 90 311 1.0 4.0 0.00 0.00 0.00 63 1011.2
20260902004120 91 288 1.0 2.0 0.00 0.00 0.00 63 1010.9
20260902003619 91 285 1.0 4.0 0.00 0.00 0.00 62 1010.9
20260902003119 91 311 1.0 4.0 0.00 0.00 0.00 62 1010.6
20260902002619 91 304 2.0 6.0 0.00 0.00 0.00 62 1010.5
20260902002115 91 264 1.0 6.0 0.00 0.00 0.00 61 1010.3
20260902001615 91 211 2.0 6.0 0.00 0.00 0.00 60 1010.2
20260902001116 91 218 2.0 6.0 0.00 0.00 0.00 60 1010.2
20260902000614 92 356 1.0 5.0 0.00 0.00 0.00 59 1010.1
20260902000114 92 288 1.0 6.0 0.00 0.00 0.00 58 1010.1
20260901235616 92 194 2.0 6.0 0.00 0.00 0.00 58 1010.2
20260901234608 92 212 2.0 6.0 0.00 0.00 0.00 57 1010.1
20260901234108 92 274 3.0 7.0 0.00 0.00 0.00 57 1010.1
20260901233608 93 199 3.0 7.0 0.00 0.00 0.00 56 1010.1
20260901233111 93 206 2.0 6.0 0.00 0.00 0.00 56 1010.1
20260901232609 93 242 3.0 7.0 0.00 0.00 0.00 55 1010.2
20260901232108 93 283 3.0 9.0 0.00 0.00 0.00 55 1010.3
20260901231608 93 221 3.0 9.0 0.00 0.00 0.00 55 1010.4
20260901231107 94 238 3.0 10.0 0.00 0.00 0.00 54 1010.4
20260901230606 94 200 3.0 10.0 0.00 0.00 0.00 54 1010.4
20260901230106 94 227 2.0 6.0 0.00 0.00 0.00 54 1010.4
20260901225105 94 197 3.0 8.0 0.00 0.00 0.00 54 1010.4
20260901224606 94 219 2.0 8.0 0.00 0.00 0.00 54 1010.4
20260901222558 95 241 2.0 8.0 0.00 0.00 0.00 51 1010.5
20260901222058 95 135 1.0 7.0 0.00 0.00 0.00 50 1010.5
20260901220558 96 262 3.0 8.0 0.00 0.00 0.00 50 1010.5
20260901220050 96 227 3.0 8.0 0.00 0.00 0.00 50 1010.5
20260901215546 96 250 3.0 8.0 0.00 0.00 0.00 50 1010.5
20260901215047 96 262 2.0 8.0 0.00 0.00 0.00 50 1010.6
20260901214546 97 287 2.0 7.0 0.00 0.00 0.00 48 1010.6
20260901214047 97 142 2.0 7.0 0.00 0.00 0.00 48 1010.6
20260901213546 97 255 2.0 6.0 0.00 0.00 0.00 48 1010.6
20260901212546 97 294 2.0 8.0 0.00 0.00 0.00 48 1010.6
20260901212045 98 199 1.0 6.0 0.00 0.00 0.00 48 1010.6
20260901211543 97 323 2.0 8.0 0.00 0.00 0.00 49 1010.6
20260901211042 97 210 2.0 8.0 0.00 0.00 0.00 48 1010.7
20260901210542 97 199 2.0 7.0 0.00 0.00 0.00 49 1010.7
20260901205539 96 337 2.0 7.0 0.00 0.00 0.00 49 1010.8
20260901205039 96 262 3.0 7.0 0.00 0.00 0.00 50 1010.9
20260901204536 96 326 2.0 9.0 0.00 0.00 0.00 50 1010.9
20260901203530 95 245 4.0 10.0 0.00 0.00 0.00 51 1011.0
20260901203026 95 332 4.0 10.0 0.00 0.00 0.00 51 1011.1
20260901202528 96 235 3.0 10.0 0.00 0.00 0.00 51 1011.0
20260901202027 95 243 2.0 7.0 0.00 0.00 0.00 53 1011.0
20260901201528 95 197 3.0 7.0 0.00 0.00 0.00 53 1011.1
20260901201028 95 34 3.0 9.0 0.00 0.00 0.00 53 1011.2
20260901200527 96 331 3.0 9.0 0.00 0.00 0.00 52 1011.2
20260901200022 96 330 3.0 8.0 0.00 0.00 0.00 51 1011.3
20260901195020 97 316 3.0 10.0 0.00 0.00 0.00 49 1011.3
20260901194519 97 231 3.0 8.0 0.00 0.00 0.00 47 1011.3
20260901193519 97 305 3.0 10.0 0.00 0.00 0.00 47 1011.5
20260901193019 97 311 3.0 11.0 0.00 0.00 0.00 46 1011.5
20260901192514 96 339 3.0 11.0 0.00 0.00 0.00 48 1011.6
20260901192013 96 336 3.0 9.0 0.00 0.00 0.00 51 1011.7
20260901191512 96 353 3.0 9.0 0.00 0.00 0.00 51 1011.8
20260901191013 95 304 4.0 14.0 0.00 0.00 0.00 52 1011.8
20260901190513 96 306 5.0 14.0 0.00 0.00 0.00 50 1012.0
20260901190011 96 13 4.0 11.0 0.00 0.00 0.00 49 1012.0
20260901185510 96 328 3.0 11.0 0.00 0.00 0.00 49 1012.0
20260901185004 96 321 3.0 11.0 0.00 0.00 0.00 50 1012.1
20260901184004 96 309 4.0 9.0 0.00 0.00 0.00 50 1011.9
20260901183504 96 302 4.0 8.0 0.00 0.00 0.00 52 1012.0
20260901183005 96 302 3.0 8.0 0.00 0.00 0.00 51 1012.0
20260901182006 97 240 2.0 8.0 0.00 0.00 0.00 51 1011.8
20260901181458 96 313 2.0 7.0 0.00 0.00 0.00 52 1011.9
20260901180957 95 198 2.0 7.0 0.00 0.00 0.00 52 1011.9
20260901180455 95 41 3.0 9.0 0.00 0.00 0.00 53 1011.9
20260901175953 94 319 4.0 10.0 0.00 0.00 0.00 54 1012.1
20260901175453 94 311 4.0 10.0 0.00 0.00 0.00 54 1012.0
20260901174954 95 281 3.0 9.0 0.00 0.00 0.00 52 1012.0
20260901174447 95 311 4.0 8.0 0.00 0.00 0.00 51 1011.9
20260901173948 95 25 3.0 8.0 0.00 0.00 0.00 51 1012.0
20260901173447 96 337 3.0 12.0 0.00 0.00 0.00 51 1012.0
20260901172947 95 9 4.0 12.0 0.00 0.00 0.00 51 1012.0
20260901171948 96 340 2.0 9.0 0.00 0.00 0.00 51 1012.1
20260901171449 94 192 2.0 9.0 0.00 0.00 0.00 54 1012.0
20260901170943 94 311 2.0 6.0 0.00 0.00 0.00 54 1012.1
20260901170443 94 307 1.0 6.0 0.00 0.00 0.00 55 1012.2
20260901165942 93 17 1.0 5.0 0.00 0.00 0.00 56 1012.3
20260901165442 93 314 3.0 9.0 0.00 0.00 0.00 56 1012.4
20260901164942 94 297 3.0 9.0 0.00 0.00 0.00 55 1012.6
20260901164444 94 304 3.0 8.0 0.00 0.00 0.00 55 1012.6
20260901163943 94 311 3.0 7.0 0.00 0.00 0.00 54 1012.6
20260901163438 94 280 2.0 7.0 0.00 0.00 0.00 55 1012.5
20260901162934 94 297 3.0 7.0 0.00 0.00 0.00 55 1012.6
20260901162434 94 6 3.0 9.0 0.00 0.00 0.00 55 1012.7
20260901161935 93 321 4.0 9.0 0.00 0.00 0.00 56 1012.8
20260901161433 93 279 4.0 9.0 0.00 0.00 0.00 56 1012.8
20260901160933 93 321 3.0 7.0 0.00 0.00 0.00 57 1012.9
20260901160429 93 333 2.0 8.0 0.00 0.00 0.00 56 1013.0
20260901155929 92 146 3.0 10.0 0.00 0.00 0.00 58 1012.9
20260901155430 92 284 3.0 10.0 0.00 0.00 0.00 57 1013.1
20260901154428 92 290 2.0 7.0 0.00 0.00 0.00 56 1013.2
20260901153927 92 326 2.0 8.0 0.00 0.00 0.00 57 1013.2
20260901152921 92 290 2.0 9.0 0.00 0.00 0.00 57 1013.3
20260901152421 92 252 3.0 9.0 0.00 0.00 0.00 57 1013.4
20260901151922 92 349 2.0 8.0 0.00 0.00 0.00 57 1013.4
20260901151421 92 316 2.0 6.0 0.00 0.00 0.00 57 1013.4
20260901150921 91 248 2.0 6.0 0.00 0.00 0.00 58 1013.4
20260901150420 91 311 2.0 6.0 0.00 0.00 0.00 59 1013.5
20260901145414 91 330 3.0 9.0 0.00 0.00 0.00 59 1013.5
20260901144916 91 242 3.0 9.0 0.00 0.00 0.00 59 1013.5
20260901144415 90 255 1.0 8.0 0.00 0.00 0.00 61 1013.5
20260901143915 89 292 0.0 4.0 0.00 0.00 0.00 62 1013.6
20260901143415 89 208 1.0 4.0 0.00 0.00 0.00 62 1013.6
20260901142910 89 304 2.0 5.0 0.00 0.00 0.00 62 1013.6
20260901142411 89 329 1.0 5.0 0.00 0.00 0.00 61 1013.5
20260901141910 89 309 0.0 5.0 0.00 0.00 0.00 62 1013.6
20260901141411 89 294 1.0 5.0 0.00 0.00 0.00 63 1013.6
20260901140911 89 259 2.0 5.0 0.00 0.00 0.00 65 1013.5
20260901140411 89 290 2.0 4.0 0.00 0.00 0.00 66 1013.6
20260901135913 89 239 1.0 4.0 0.00 0.00 0.00 66 1013.6
20260901134905 89 337 1.0 6.0 0.00 0.00 0.00 65 1013.6
20260901133905 88 200 1.0 6.0 0.00 0.00 0.00 66 1013.6
20260901133403 87 238 1.0 6.0 0.00 0.00 0.00 66 1013.6
20260901132359 87 254 0.0 4.0 0.00 0.00 0.00 68 1013.7
20260901131900 86 252 0.0 4.0 0.00 0.00 0.00 71 1013.7
20260901131402 86 309 0.0 4.0 0.00 0.00 0.00 71 1013.7
20260901130859 85 187 1.0 5.0 0.00 0.00 0.00 73 1013.8
20260901130357 85 211 1.0 5.0 0.00 0.00 0.00 73 1013.9
20260901125858 84 248 1.0 3.0 0.00 0.00 0.00 75 1013.9
20260901124852 84 212 2.0 5.0 0.00 0.00 0.00 76 1014.0
20260901123851 83 215 1.0 4.0 0.00 0.00 0.00 78 1014.0
20260901123352 83 197 1.0 4.0 0.00 0.00 0.00 79 1014.1
20260901122852 82 255 2.0 5.0 0.00 0.00 0.00 79 1014.1
20260901122348 82 281 1.0 5.0 0.00 0.00 0.00 79 1014.1
20260901120847 81 238 0.0 2.0 0.00 0.00 0.00 81 1014.0
20260901120345 81 248 0.0 3.0 0.00 0.00 0.00 81 1014.0
20260901115843 81 215 0.0 3.0 0.00 0.00 0.00 81 1013.9
20260901113840 81 216 0.0 2.0 0.00 0.00 0.00 81 1013.6
20260901113337 81 201 1.0 3.0 0.00 0.00 0.00 82 1013.6
20260901112838 81 209 0.0 3.0 0.00 0.00 0.00 82 1013.5
20260901112334 80 240 0.0 1.0 0.00 0.00 0.00 83 1013.6
20260901111834 80 252 0.0 1.0 0.00 0.00 0.00 84 1013.6
20260901111334 80 259 1.0 3.0 0.00 0.00 0.00 84 1013.6
20260901110835 80 222 1.0 3.0 0.00 0.00 0.00 84 1013.6
20260901110335 79 266 0.0 1.0 0.00 0.00 0.00 86 1013.6
20260901104328 79 211 0.0 4.0 0.00 0.00 0.00 86 1013.5
20260901103830 79 233 0.0 2.0 0.00 0.00 0.00 86 1013.6
20260901102827 79 250 0.0 1.0 0.00 0.00 0.00 87 1013.4
20260901102327 79 280 0.0 2.0 0.00 0.00 0.00 87 1013.4
20260901101319 79 221 0.0 1.0 0.00 0.00 0.00 87 1013.4
20260901100817 79 221 0.0 1.0 0.00 0.00 0.00 87 1013.3
20260901100316 79 229 0.0 2.0 0.00 0.00 0.00 87 1013.2
20260901095815 79 198 1.0 3.0 0.00 0.00 0.00 87 1013.2
20260901095317 79 211 1.0 3.0 0.00 0.00 0.00 87 1013.2
20260901094809 79 188 1.0 3.0 0.00 0.00 0.00 87 1013.2
20260901094307 79 203 0.0 3.0 0.00 0.00 0.00 86 1013.2
20260901093805 79 221 0.0 1.0 0.00 0.00 0.00 86 1013.2
20260901093304 79 221 1.0 4.0 0.00 0.00 0.00 86 1013.3
20260901092804 79 235 1.0 5.0 0.00 0.00 0.00 86 1013.5
20260901092256 79 242 1.0 5.0 0.00 0.00 0.00 86 1013.4
20260901091758 79 215 1.0 7.0 0.00 0.00 0.00 86 1013.5
20260901090257 79 222 0.0 3.0 0.00 0.00 0.00 88 1013.6
20260901085757 79 246 0.0 3.0 0.00 0.00 0.00 88 1013.5
20260901084749 79 201 1.0 4.0 0.00 0.00 0.00 88 1013.5
20260901084247 79 274 0.0 4.0 0.00 0.00 0.00 88 1013.5
20260901083748 79 247 0.0 2.0 0.00 0.00 0.00 88 1013.5
20260901083248 79 214 0.0 2.0 0.00 0.00 0.00 88 1013.5
20260901082747 79 190 1.0 4.0 0.00 0.00 0.00 88 1013.5
20260901082242 79 208 1.0 4.0 0.00 0.00 0.00 88 1013.5
20260901081743 79 215 0.0 4.0 0.00 0.00 0.00 88 1013.5
20260901081244 79 210 0.0 4.0 0.00 0.00 0.00 88 1013.4
20260901080743 79 255 0.0 3.0 0.00 0.00 0.00 88 1013.5
20260901080241 79 267 0.0 3.0 0.00 0.00 0.00 89 1013.4
20260901075741 79 195 1.0 3.0 0.00 0.00 0.00 89 1013.4
20260901075235 79 198 1.0 3.0 0.00 0.00 0.00 89 1013.4
20260901074735 79 210 1.0 3.0 0.00 0.00 0.00 89 1013.4